WJA582 CYYC-CYKF

Flight info

Callsign WJA582
Flight time N/A
Altitude 37000
Route LOMLO Q961 DAPOP DCT UDBOX DCT GABOV DCT YQT DCT SSM DCT MUSIT DCT YVV DCT REVUD
Aircraft B38M/M-SDE1FGHILORVWXY/HB1

Departure

Time 2026-04-27 10:46
Airport Calgary International Airport (CYYC)

Arrival

Time N/A
Airport Region of Waterloo International Airport (CYKF)
Time Latitude Longitude Altitude Speed Heading
2026-04-27 10:12 51.12921 -114.01400 3546 ft 0 kts 82°
2026-04-27 10:31 51.12920 -114.01414 3546 ft 3 kts 88°
2026-04-27 10:31 51.12919 -114.01445 3545 ft 3 kts 79°
2026-04-27 10:31 51.12913 -114.01476 3545 ft 3 kts 64°
2026-04-27 10:31 51.12903 -114.01502 3544 ft 3 kts 47°
2026-04-27 10:32 51.12890 -114.01521 3541 ft 1 kts 34°
2026-04-27 10:32 51.12885 -114.01526 3545 ft 0 kts 34°
2026-04-27 10:35 51.12886 -114.01525 3545 ft 0 kts 38°
2026-04-27 10:36 51.12889 -114.01518 3543 ft 1 kts 57°
2026-04-27 10:36 51.12890 -114.01501 3545 ft 2 kts 96°
2026-04-27 10:36 51.12881 -114.01482 3545 ft 3 kts 134°
2026-04-27 10:36 51.12864 -114.01454 3544 ft 4 kts 134°
2026-04-27 10:37 51.12834 -114.01404 3546 ft 9 kts 132°
2026-04-27 10:37 51.12792 -114.01326 3543 ft 8 kts 132°
2026-04-27 10:37 51.12747 -114.01287 3543 ft 7 kts 175°
2026-04-27 10:37 51.12703 -114.01320 3543 ft 8 kts 221°
2026-04-27 10:38 51.12657 -114.01370 3547 ft 8 kts 199°
2026-04-27 10:38 51.12609 -114.01341 3545 ft 7 kts 121°
2026-04-27 10:38 51.12606 -114.01267 3549 ft 7 kts 86°
2026-04-27 10:38 51.12608 -114.01187 3549 ft 8 kts 89°
2026-04-27 10:39 51.12609 -114.01080 3552 ft 11 kts 87°
2026-04-27 10:39 51.12614 -114.00934 3553 ft 15 kts 89°
2026-04-27 10:39 51.12615 -114.00750 3555 ft 18 kts 89°
2026-04-27 10:39 51.12615 -114.00526 3557 ft 22 kts 90°
2026-04-27 10:40 51.12616 -114.00264 3558 ft 25 kts 90°
2026-04-27 10:40 51.12617 -113.99991 3558 ft 25 kts 90°
2026-04-27 10:40 51.12616 -113.99724 3558 ft 19 kts 90°
2026-04-27 10:40 51.12617 -113.99559 3557 ft 14 kts 90°
2026-04-27 10:41 51.12617 -113.99413 3557 ft 9 kts 90°
2026-04-27 10:41 51.12630 -113.99324 3555 ft 8 kts 48°
2026-04-27 10:41 51.12685 -113.99304 3557 ft 9 kts
2026-04-27 10:41 51.12755 -113.99305 3554 ft 12 kts 359°
2026-04-27 10:42 51.12853 -113.99305 3559 ft 17 kts
2026-04-27 10:42 51.12988 -113.99303 3560 ft 22 kts
2026-04-27 10:42 51.13159 -113.99304 3557 ft 26 kts
2026-04-27 10:42 51.13339 -113.99303 3559 ft 26 kts 360°
2026-04-27 10:43 51.13515 -113.99304 3557 ft 25 kts
2026-04-27 10:43 51.13657 -113.99303 3560 ft 18 kts
2026-04-27 10:43 51.13774 -113.99302 3565 ft 13 kts
2026-04-27 10:43 51.13842 -113.99290 3566 ft 9 kts 23°
2026-04-27 10:44 51.13864 -113.99209 3566 ft 9 kts 92°
2026-04-27 10:44 51.13862 -113.99104 3558 ft 11 kts 94°
2026-04-27 10:44 51.13830 -113.99034 3559 ft 7 kts 171°
2026-04-27 10:44 51.13816 -113.99032 3563 ft 0 kts 178°
2026-04-27 10:45 51.13813 -113.99032 3566 ft 5 kts 179°
2026-04-27 10:45 51.13510 -113.99034 3562 ft 82 kts 180°
2026-04-27 10:45 51.12707 -113.99034 3557 ft 147 kts 180°
2026-04-27 10:45 51.11536 -113.99033 3824 ft 177 kts 178°
2026-04-27 10:46 51.10373 -113.98380 4566 ft 186 kts 139°
2026-04-27 10:46 51.09831 -113.96516 5383 ft 193 kts 94°
2026-04-27 10:46 51.09985 -113.94262 5800 ft 224 kts 76°
2026-04-27 10:46 51.10783 -113.91938 6180 ft 250 kts 49°
2026-04-27 10:47 51.11985 -113.89788 6807 ft 266 kts 53°
2026-04-27 10:47 51.12762 -113.87203 7929 ft 260 kts 80°
2026-04-27 10:47 51.12701 -113.84228 8374 ft 281 kts 108°
2026-04-27 10:47 51.11985 -113.81359 9331 ft 279 kts 110°
2026-04-27 10:48 51.11389 -113.78377 10156 ft 286 kts 107°
2026-04-27 10:48 51.10875 -113.75233 10734 ft 303 kts 103°
2026-04-27 10:48 51.10413 -113.71842 11141 ft 324 kts 102°
2026-04-27 10:48 51.09983 -113.68213 11556 ft 341 kts 100°
2026-04-27 10:49 51.09572 -113.64429 12118 ft 353 kts 99°
2026-04-27 10:49 51.09169 -113.60563 12908 ft 356 kts 99°
2026-04-27 10:49 51.08771 -113.56647 13608 ft 361 kts 99°
2026-04-27 10:49 51.08374 -113.52686 14326 ft 365 kts 98°
2026-04-27 10:50 51.07974 -113.48675 15006 ft 369 kts 98°
2026-04-27 10:50 51.07568 -113.44617 15680 ft 374 kts 98°
2026-04-27 10:50 51.07159 -113.40520 16310 ft 378 kts 98°
2026-04-27 10:50 51.06865 -113.36346 16915 ft 382 kts 95°
2026-04-27 10:51 51.06614 -113.32127 17518 ft 386 kts 95°
2026-04-27 10:51 51.06347 -113.27863 18120 ft 389 kts 95°
2026-04-27 10:51 51.06072 -113.23559 18685 ft 393 kts 95°
2026-04-27 10:51 51.05775 -113.19225 19253 ft 397 kts 95°
2026-04-27 10:52 51.05471 -113.14840 19780 ft 401 kts 96°
2026-04-27 10:52 51.05167 -113.10482 20319 ft 404 kts 96°
2026-04-27 10:52 51.04856 -113.06028 20829 ft 408 kts 96°
2026-04-27 10:52 51.04539 -113.01530 21332 ft 411 kts 96°
2026-04-27 10:53 51.04218 -112.96994 21830 ft 415 kts 96°
2026-04-27 10:53 51.03564 -112.87815 22783 ft 422 kts 96°
2026-04-27 10:53 51.03229 -112.83163 23225 ft 425 kts 96°
2026-04-27 10:54 51.02891 -112.78488 23685 ft 428 kts 96°
2026-04-27 10:54 51.02548 -112.73769 24118 ft 431 kts 96°
2026-04-27 10:54 51.02201 -112.69024 24534 ft 434 kts 96°
2026-04-27 10:54 51.01849 -112.64242 24969 ft 437 kts 96°
2026-04-27 10:55 51.01494 -112.59443 25409 ft 439 kts 96°
2026-04-27 10:55 51.01134 -112.54612 25777 ft 442 kts 96°
2026-04-27 10:55 51.00770 -112.49754 26200 ft 444 kts 96°
2026-04-27 10:55 51.00403 -112.44872 26599 ft 446 kts 96°
2026-04-27 10:56 51.00032 -112.39970 26965 ft 449 kts 96°
2026-04-27 10:56 50.99656 -112.35038 27341 ft 451 kts 96°
2026-04-27 10:56 50.99277 -112.30083 27697 ft 453 kts 96°
2026-04-27 10:56 50.98894 -112.25113 28066 ft 455 kts 96°
2026-04-27 10:57 50.98507 -112.20116 28413 ft 457 kts 96°
2026-04-27 10:57 50.98116 -112.15097 28745 ft 459 kts 96°
2026-04-27 10:57 50.97721 -112.10055 29083 ft 461 kts 96°
2026-04-27 10:57 50.97323 -112.05002 29394 ft 463 kts 96°
2026-04-27 10:58 50.96920 -111.99913 29708 ft 465 kts 96°
2026-04-27 10:58 50.96513 -111.94808 30009 ft 467 kts 96°
2026-04-27 10:58 50.96108 -111.89750 30241 ft 471 kts 97°
2026-04-27 10:58 50.95686 -111.84518 30512 ft 473 kts 97°
2026-04-27 10:59 50.95266 -111.79333 30820 ft 474 kts 97°
2026-04-27 10:59 50.94844 -111.74158 31215 ft 473 kts 97°
2026-04-27 10:59 50.94425 -111.69045 31568 ft 473 kts 97°
2026-04-27 11:00 50.93572 -111.58701 32278 ft 473 kts 97°
2026-04-27 11:00 50.93144 -111.53537 32652 ft 472 kts 97°
2026-04-27 11:00 50.92729 -111.48381 32977 ft 472 kts 94°
2026-04-27 11:00 50.92599 -111.43198 33278 ft 471 kts 91°
2026-04-27 11:01 50.92474 -111.38004 33556 ft 472 kts 92°
2026-04-27 11:01 50.92327 -111.32807 33855 ft 472 kts 92°
2026-04-27 11:01 50.92167 -111.27613 34172 ft 472 kts 92°
2026-04-27 11:01 50.92002 -111.22431 34464 ft 472 kts 92°
2026-04-27 11:02 50.91834 -111.17234 34747 ft 472 kts 92°
2026-04-27 11:02 50.91663 -111.12038 35019 ft 472 kts 92°
2026-04-27 11:02 50.91489 -111.06836 35268 ft 473 kts 92°
2026-04-27 11:02 50.91314 -111.01627 35517 ft 473 kts 93°
2026-04-27 11:03 50.91136 -110.96431 35788 ft 472 kts 93°
2026-04-27 11:03 50.90955 -110.91233 36005 ft 473 kts 93°
2026-04-27 11:03 50.90772 -110.86025 36193 ft 474 kts 93°
2026-04-27 11:03 50.90587 -110.80808 36388 ft 475 kts 93°
2026-04-27 11:04 50.90399 -110.75584 36593 ft 475 kts 93°
2026-04-27 11:04 50.90208 -110.70353 36800 ft 475 kts 93°
2026-04-27 11:04 50.90016 -110.65143 37064 ft 473 kts 93°
2026-04-27 11:04 50.89821 -110.59940 37173 ft 473 kts 93°
2026-04-27 11:05 50.89430 -110.49652 37157 ft 466 kts 93°
2026-04-27 11:05 50.89031 -110.39399 37148 ft 467 kts 94°
2026-04-27 11:06 50.88623 -110.29134 37145 ft 467 kts 94°
2026-04-27 11:06 50.88205 -110.18864 37150 ft 468 kts 94°
2026-04-27 11:07 50.87780 -110.08580 37156 ft 468 kts 94°
2026-04-27 11:07 50.87340 -109.98303 37155 ft 468 kts 94°
2026-04-27 11:08 50.86886 -109.88019 37156 ft 469 kts 94°
2026-04-27 11:08 50.86422 -109.77707 37143 ft 470 kts 94°
2026-04-27 11:09 50.85951 -109.67398 37147 ft 470 kts 94°
2026-04-27 11:09 50.85469 -109.57092 37146 ft 469 kts 95°
2026-04-27 11:10 50.84979 -109.46787 37148 ft 470 kts 95°
2026-04-27 11:10 50.84483 -109.36555 37145 ft 469 kts 95°
2026-04-27 11:11 50.83975 -109.26257 37144 ft 470 kts 95°
2026-04-27 11:11 50.83457 -109.15947 37146 ft 471 kts 95°
2026-04-27 11:12 50.82930 -109.05637 37146 ft 470 kts 95°
2026-04-27 11:12 50.82394 -108.95328 37147 ft 470 kts 95°
2026-04-27 11:13 50.81849 -108.85023 37146 ft 471 kts 95°
2026-04-27 11:13 50.81294 -108.74711 37146 ft 471 kts 95°
2026-04-27 11:14 50.80730 -108.64396 37147 ft 471 kts 96°
2026-04-27 11:14 50.80157 -108.54086 37147 ft 471 kts 96°
2026-04-27 11:15 50.79573 -108.43763 37145 ft 471 kts 96°
2026-04-27 11:15 50.78981 -108.33441 37139 ft 471 kts 96°
2026-04-27 11:16 50.78380 -108.23142 37138 ft 471 kts 96°
2026-04-27 11:16 50.77770 -108.12813 37137 ft 472 kts 96°
2026-04-27 11:17 50.77150 -108.02497 37137 ft 472 kts 96°
2026-04-27 11:17 50.76521 -107.92183 37134 ft 473 kts 97°
2026-04-27 11:18 50.75880 -107.81825 37138 ft 474 kts 97°
2026-04-27 11:18 50.75230 -107.71477 37144 ft 474 kts 97°
2026-04-27 11:19 50.74571 -107.61120 37138 ft 474 kts 97°
2026-04-27 11:19 50.73902 -107.50762 37139 ft 474 kts 97°
2026-04-27 11:20 50.73223 -107.40411 37139 ft 474 kts 97°
2026-04-27 11:20 50.72535 -107.30047 37134 ft 474 kts 97°
2026-04-27 11:21 50.71838 -107.19684 37137 ft 475 kts 97°
2026-04-27 11:21 50.71131 -107.09320 37137 ft 475 kts 97°
2026-04-27 11:22 50.70420 -106.99030 37135 ft 476 kts 98°
2026-04-27 11:22 50.69694 -106.88667 37141 ft 475 kts 98°
2026-04-27 11:23 50.68958 -106.78285 37150 ft 476 kts 98°
2026-04-27 11:23 50.68212 -106.67909 37146 ft 476 kts 98°
2026-04-27 11:24 50.67581 -106.59220 37148 ft 477 kts 98°
2026-04-27 11:24 50.66818 -106.48841 37152 ft 477 kts 98°
2026-04-27 11:25 50.66051 -106.38530 37155 ft 477 kts 98°
2026-04-27 11:25 50.65269 -106.28159 37156 ft 477 kts 99°
2026-04-27 11:26 50.64478 -106.17777 37160 ft 477 kts 99°
2026-04-27 11:26 50.63677 -106.07400 37165 ft 477 kts 99°
2026-04-27 11:27 50.62868 -105.97026 37167 ft 477 kts 99°
2026-04-27 11:27 50.62047 -105.86642 37164 ft 478 kts 99°
2026-04-27 11:28 50.61217 -105.76252 37169 ft 479 kts 99°
2026-04-27 11:28 50.60377 -105.65854 37176 ft 479 kts 99°
2026-04-27 11:29 50.59528 -105.55470 37170 ft 479 kts 100°
2026-04-27 11:29 50.58668 -105.45071 37175 ft 479 kts 100°
2026-04-27 11:30 50.57800 -105.34686 37166 ft 479 kts 100°
2026-04-27 11:30 50.56920 -105.24277 37158 ft 479 kts 100°
2026-04-27 11:31 50.56032 -105.13882 37168 ft 480 kts 100°
2026-04-27 11:31 50.55134 -105.03480 37166 ft 480 kts 101°
2026-04-27 11:32 50.54227 -104.93086 37159 ft 480 kts 101°
2026-04-27 11:32 50.53309 -104.82679 37157 ft 480 kts 101°
2026-04-27 11:33 50.52382 -104.72285 37158 ft 481 kts 101°
2026-04-27 11:33 50.51445 -104.61878 37157 ft 481 kts 102°
2026-04-27 11:34 50.50499 -104.51478 37155 ft 481 kts 102°
2026-04-27 11:34 50.49545 -104.41082 37153 ft 481 kts 102°
2026-04-27 11:35 50.48579 -104.30671 37158 ft 482 kts 102°
2026-04-27 11:35 50.47608 -104.20330 37154 ft 481 kts 102°
2026-04-27 11:36 50.46624 -104.09937 37152 ft 482 kts 103°
2026-04-27 11:36 50.45631 -103.99553 37153 ft 481 kts 103°
2026-04-27 11:37 50.44627 -103.89157 37149 ft 483 kts 103°
2026-04-27 11:37 50.43614 -103.78760 37152 ft 482 kts 103°
2026-04-27 11:38 50.42591 -103.68364 37154 ft 482 kts 103°
2026-04-27 11:38 50.41559 -103.57980 37141 ft 482 kts 103°
2026-04-27 11:39 50.40519 -103.47607 37147 ft 482 kts 103°
2026-04-27 11:39 50.39466 -103.37209 37148 ft 483 kts 103°
2026-04-27 11:40 50.38405 -103.26818 37143 ft 483 kts 103°
2026-04-27 11:40 50.37334 -103.16434 37134 ft 483 kts 103°
2026-04-27 11:41 50.36253 -103.06046 37137 ft 483 kts 103°
2026-04-27 11:41 50.35165 -102.95665 37137 ft 483 kts 103°
2026-04-27 11:42 50.34065 -102.85293 37135 ft 483 kts 104°
2026-04-27 11:42 50.32957 -102.74916 37135 ft 483 kts 104°
2026-04-27 11:43 50.31840 -102.64553 37139 ft 483 kts 104°
2026-04-27 11:43 50.30716 -102.54209 37140 ft 483 kts 104°
2026-04-27 11:44 50.29579 -102.43847 37140 ft 483 kts 104°
2026-04-27 11:44 50.28436 -102.33507 37127 ft 483 kts 104°
2026-04-27 11:45 50.27478 -102.24915 37132 ft 483 kts 105°
2026-04-27 11:45 50.26121 -102.12843 37127 ft 482 kts 105°
2026-04-27 11:46 50.24959 -102.02599 37128 ft 482 kts 105°
2026-04-27 11:46 50.23781 -101.92297 37129 ft 482 kts 105°
2026-04-27 11:47 50.22592 -101.81983 37128 ft 482 kts 105°
2026-04-27 11:47 50.21395 -101.71684 37128 ft 482 kts 105°
2026-04-27 11:48 50.20188 -101.61383 37126 ft 483 kts 105°
2026-04-27 11:48 50.18970 -101.51073 37130 ft 483 kts 105°
2026-04-27 11:49 50.17744 -101.40775 37132 ft 483 kts 105°
2026-04-27 11:49 50.16508 -101.30478 37127 ft 483 kts 105°
2026-04-27 11:50 50.15261 -101.20176 37119 ft 484 kts 105°
2026-04-27 11:50 50.14006 -101.09876 37121 ft 483 kts 106°
2026-04-27 11:51 50.12741 -100.99585 37123 ft 483 kts 106°
2026-04-27 11:52 50.10833 -100.84164 37123 ft 484 kts 106°
2026-04-27 11:52 50.09550 -100.73884 37120 ft 483 kts 106°
2026-04-27 11:53 50.08261 -100.63634 37118 ft 483 kts 107°
2026-04-27 11:53 50.06963 -100.53387 37115 ft 482 kts 107°
2026-04-27 11:54 50.05657 -100.43152 37118 ft 482 kts 107°
2026-04-27 11:54 50.04344 -100.32927 37118 ft 482 kts 107°
2026-04-27 11:55 50.03025 -100.22729 37114 ft 480 kts 107°
2026-04-27 11:55 50.01698 -100.12537 37121 ft 481 kts 107°
2026-04-27 11:56 50.00371 -100.02415 37118 ft 481 kts 107°
2026-04-27 11:56 49.99150 -99.92178 37118 ft 482 kts 105°
2026-04-27 11:57 49.97957 -99.81927 37119 ft 482 kts 106°
2026-04-27 11:57 49.96758 -99.71694 37118 ft 481 kts 106°
2026-04-27 11:58 49.95552 -99.61474 37120 ft 481 kts 106°
2026-04-27 11:58 49.94338 -99.51275 37117 ft 480 kts 106°
2026-04-27 11:59 49.93118 -99.41103 37119 ft 479 kts 106°
2026-04-27 11:59 49.91891 -99.30949 37117 ft 479 kts 106°
2026-04-27 12:00 49.90656 -99.20812 37111 ft 478 kts 107°
2026-04-27 12:00 49.89415 -99.10699 37113 ft 477 kts 107°
2026-04-27 12:01 49.88167 -99.00606 37111 ft 476 kts 107°
2026-04-27 12:01 49.86911 -98.90527 37098 ft 476 kts 107°
2026-04-27 12:02 49.85647 -98.80458 37098 ft 476 kts 107°
2026-04-27 12:02 49.84376 -98.70414 37091 ft 475 kts 108°
2026-04-27 12:03 49.83099 -98.60379 37103 ft 474 kts 107°
2026-04-27 12:03 49.81818 -98.50397 37107 ft 472 kts 107°
2026-04-27 12:04 49.80537 -98.40484 37111 ft 472 kts 107°
2026-04-27 12:04 49.79239 -98.30514 37113 ft 473 kts 108°
2026-04-27 12:05 49.77932 -98.20552 37107 ft 473 kts 108°
2026-04-27 12:05 49.76615 -98.10574 37114 ft 474 kts 108°
2026-04-27 12:06 49.75290 -98.00606 37102 ft 473 kts 108°
2026-04-27 12:06 49.73956 -97.90646 37098 ft 473 kts 108°
2026-04-27 12:07 49.72616 -97.80700 37101 ft 472 kts 108°
2026-04-27 12:07 49.71267 -97.70762 37098 ft 473 kts 108°
2026-04-27 12:08 49.69908 -97.60823 37095 ft 472 kts 108°
2026-04-27 12:08 49.68546 -97.50920 37084 ft 471 kts 108°
2026-04-27 12:09 49.67453 -97.40973 36816 ft 475 kts 97°
2026-04-27 12:09 49.67732 -97.35822 35940 ft 491 kts 81°
2026-04-27 12:09 49.68913 -97.30756 34510 ft 514 kts 65°
2026-04-27 12:09 49.70960 -97.26130 33278 ft 527 kts 57°
2026-04-27 12:10 49.72488 -97.21256 33165 ft 485 kts 85°
2026-04-27 12:10 49.72843 -97.16239 33551 ft 458 kts 94°
2026-04-27 12:10 49.72966 -97.11352 33464 ft 454 kts 96°
2026-04-27 12:10 49.72978 -97.06521 33168 ft 444 kts 99°
2026-04-27 12:11 49.72883 -97.03393 32861 ft 437 kts 102°
2026-04-27 12:11 49.72591 -96.97177 32145 ft 433 kts 102°
2026-04-27 12:11 49.72437 -96.94083 31769 ft 439 kts 101°
2026-04-27 12:11 49.72140 -96.87895 31019 ft 433 kts 103°
2026-04-27 12:12 49.71881 -96.83288 30530 ft 427 kts 102°
2026-04-27 12:12 49.71728 -96.80208 30227 ft 423 kts 101°
2026-04-27 12:12 49.71475 -96.74238 29504 ft 419 kts 100°
2026-04-27 12:12 49.71321 -96.69755 28904 ft 416 kts 99°
2026-04-27 12:13 49.71133 -96.65359 28605 ft 404 kts 102°
2026-04-27 12:13 49.70934 -96.62471 28374 ft 396 kts 104°
2026-04-27 12:13 49.70600 -96.58288 27948 ft 389 kts 104°
2026-04-27 12:13 49.70207 -96.54191 27534 ft 381 kts 107°
2026-04-27 12:14 49.69746 -96.50216 27204 ft 372 kts 108°
2026-04-27 12:14 49.69294 -96.46314 26841 ft 367 kts 103°
2026-04-27 12:14 49.69091 -96.42414 26567 ft 358 kts 104°
2026-04-27 12:14 49.68595 -96.38750 26066 ft 345 kts 118°
2026-04-27 12:15 49.67463 -96.35583 25430 ft 330 kts 137°
2026-04-27 12:15 49.65902 -96.33110 25021 ft 317 kts 147°
2026-04-27 12:15 49.64237 -96.30976 24750 ft 306 kts 148°
2026-04-27 12:15 49.62599 -96.28955 24395 ft 299 kts 149°
2026-04-27 12:16 49.60969 -96.26972 23938 ft 296 kts 149°
2026-04-27 12:16 49.59354 -96.25074 23577 ft 290 kts 150°
2026-04-27 12:16 49.57753 -96.23187 23116 ft 290 kts 149°
2026-04-27 12:16 49.56167 -96.21288 22669 ft 287 kts 149°
2026-04-27 12:17 49.54612 -96.19432 22364 ft 280 kts 149°
2026-04-27 12:17 49.53079 -96.17606 21887 ft 280 kts 149°
2026-04-27 12:17 49.51524 -96.15747 21227 ft 287 kts 149°
2026-04-27 12:17 49.49937 -96.13870 20691 ft 288 kts 149°
2026-04-27 12:18 49.48344 -96.11983 20138 ft 290 kts 148°
2026-04-27 12:18 49.46814 -96.10054 19591 ft 295 kts 146°
2026-04-27 12:18 49.45271 -96.08006 19230 ft 290 kts 145°
2026-04-27 12:18 49.43788 -96.06009 18932 ft 284 kts 144°
2026-04-27 12:19 49.42312 -96.03987 18612 ft 278 kts 144°
2026-04-27 12:19 49.40894 -96.02070 18308 ft 272 kts 145°
2026-04-27 12:19 49.39493 -96.00161 17933 ft 269 kts 144°
2026-04-27 12:19 49.38105 -95.98252 17564 ft 265 kts 144°
2026-04-27 12:20 49.36777 -95.96331 17271 ft 260 kts 142°
2026-04-27 12:20 49.35484 -95.94424 16882 ft 257 kts 142°
2026-04-27 12:20 49.34189 -95.92567 16513 ft 253 kts 143°
2026-04-27 12:20 49.32905 -95.90744 16143 ft 250 kts 143°
2026-04-27 12:21 49.31612 -95.88968 15728 ft 249 kts 144°
2026-04-27 12:21 49.30312 -95.87242 15316 ft 247 kts 145°
2026-04-27 12:21 49.28982 -95.85605 14993 ft 242 kts 147°
2026-04-27 12:21 49.27661 -95.84091 14709 ft 235 kts 148°
2026-04-27 12:22 49.26368 -95.82470 14069 ft 246 kts 144°
2026-04-27 12:22 49.25055 -95.80766 13631 ft 246 kts 143°
2026-04-27 12:22 49.23761 -95.79072 13286 ft 243 kts 143°
2026-04-27 12:22 49.22477 -95.77408 12912 ft 241 kts 143°
2026-04-27 12:23 49.21200 -95.75740 12503 ft 242 kts 142°
2026-04-27 12:23 49.19972 -95.74001 12134 ft 240 kts 140°
2026-04-27 12:23 49.18762 -95.72248 11769 ft 238 kts 141°
2026-04-27 12:23 49.17515 -95.70595 11368 ft 237 kts 141°
2026-04-27 12:24 49.16301 -95.68861 10880 ft 241 kts 137°
2026-04-27 12:24 49.15100 -95.67036 10397 ft 245 kts 136°
2026-04-27 12:24 49.13898 -95.65207 10032 ft 243 kts 135°
2026-04-27 12:24 49.12690 -95.63425 9732 ft 239 kts 136°
2026-04-27 12:25 49.11492 -95.61701 9398 ft 236 kts 135°
2026-04-27 12:25 49.10333 -95.59931 9061 ft 234 kts 133°
2026-04-27 12:25 49.09194 -95.58173 8714 ft 232 kts 133°
2026-04-27 12:25 49.08046 -95.56440 8342 ft 232 kts 133°
2026-04-27 12:26 49.06912 -95.54712 7993 ft 229 kts 132°
2026-04-27 12:26 49.05797 -95.52980 7641 ft 228 kts 131°
2026-04-27 12:26 49.04701 -95.51250 7293 ft 227 kts 132°
2026-04-27 12:26 49.03587 -95.49549 6897 ft 227 kts 132°
2026-04-27 12:27 49.02480 -95.47824 6477 ft 228 kts 131°
2026-04-27 12:27 49.01385 -95.46091 6183 ft 226 kts 130°
2026-04-27 12:27 49.00298 -95.44352 5688 ft 232 kts 131°
2026-04-27 12:27 48.99131 -95.42589 5227 ft 237 kts 133°
2026-04-27 12:28 48.97945 -95.40826 4770 ft 240 kts 131°
2026-04-27 12:28 48.96757 -95.39067 4466 ft 236 kts 133°
2026-04-27 12:28 48.95524 -95.37333 3765 ft 241 kts 134°
2026-04-27 12:28 48.94292 -95.35691 2720 ft 245 kts 134°
2026-04-27 12:29 48.92868 -95.34015 1928 ft 247 kts 142°
2026-04-27 12:29 48.91839 -95.32336 1993 ft 207 kts 106°
2026-04-27 12:29 48.92294 -95.30686 1614 ft 168 kts 18°
2026-04-27 12:29 48.93275 -95.31013 1324 ft 148 kts 308°
2026-04-27 12:30 48.93368 -95.32302 1162 ft 61 kts 61°
2026-04-27 12:30 48.93324 -95.32424 1078 ft 0 kts 236°